量子界

量子谷/量子界论坛 - 分享是一种快乐!(中文字幕/百度网盘/迅雷下载)

 找回密码
 立即注册
收藏本版 |订阅

参数查询 今日: 0|主题: 1548|排名: 9 

作者 回复/查看 最后发表
[魔发精灵].Trolls.BluRay.720p-CMCT[中英字幕/3.07G] 字幕、种子均不提供下载 不提供下载 2017-3-8 028 不提供下载 2017-3-8 10:12
[魔发精灵].Trolls.BluRay.1080p.3Audios-CMCT[国粤英三语/中英字幕/8.9G] 字幕、种子 ... 不提供下载 2017-3-8 034 不提供下载 2017-3-8 10:12
犯罪大师/笨贼乐盗家 Masterminds.1080p.BluRay-HDVN 9GB 字幕、种子均不提供下载 不提供下载 2017-1-13 189 nbgfgfeng 2017-3-8 07:25
奇异博士 Doctor.Strange.BluRay.1080p- 14.8G 字幕、种子均不提供下载 不提供下载 2017-2-18 269 xyyanzhi 2017-3-7 20:20
太空旅客 Passengers.1080p.BluRay 9.10G 字幕、种子均不提供下载 不提供下载 2017-3-6 162 qiuzhi102 2017-3-7 15:34
藩篱/篱笆内的风 Fences.1080p.BluRay-DON 12.79GB 字幕、种子均不提供下载 不提供下载 2017-3-7 039 不提供下载 2017-3-7 10:17
神奇动物在哪里/怪兽与它们的产地 2016.1080p.BluRay-DON 14.97GB 字幕、种子均不提供 ... 不提供下载 2017-3-7 032 不提供下载 2017-3-7 10:17
一种谋杀 A.Kind.Of.Murder.1080p.BluRay- 7.9GB 字幕、种子均不提供下载 不提供下载 2017-3-7 0101 不提供下载 2017-3-7 10:17
绝望之室/鬼开门 The.Disappointments.Room.720p.BluRay-AMIABLE 4.37GB 字幕、种子均 ... 不提供下载 2017-3-7 042 不提供下载 2017-3-7 10:17
绝望之室/鬼开门 The.Disappointments.Room.1080p.BluRay-AMIABLE 6.56GB 字幕、种子 ... 不提供下载 2017-3-7 043 不提供下载 2017-3-7 10:16
刺客信条[韩版] Assassins.Creed.1080p.KORSUB.HDRip2.0-STUTTERSHIT 3 字幕、种子均 ...  ...2 不提供下载 2017-2-20 15574 lqm 2017-3-6 19:26
成年人生存技能 Adult.Life.Skills.1080p.WEBRip 6.24GB 字幕、种子均不提供下载 不提供下载 2017-3-6 196 begetert 2017-3-6 18:58
黑暗正义联盟 Justice.League.Dark.720p.BluRay-VETO 3.27GB 字幕、种子均不提供下载 不提供下载 2017-3-6 068 不提供下载 2017-3-6 16:29
黑暗正义联盟 Justice.League.Dark.1080p.BluRay-VETO 5.46GB 字幕、种子均不提供下载 不提供下载 2017-3-6 035 不提供下载 2017-3-6 16:29
血汗金钱 Blood.Money.1080p.WEB-DL2.0 2.58GB 字幕、种子均不提供下载 不提供下载 2017-3-6 047 不提供下载 2017-3-6 16:29
研究院 The.Institute.1080p.WEB-DL 3.76GB 字幕、种子均不提供下载 不提供下载 2017-3-6 075 不提供下载 2017-3-6 16:29
当你约会的时候 While.You.Were.Dating.1080p.HDTV-REGRET 4.8GB 字幕、种子均不提供 ... 不提供下载 2017-3-6 051 不提供下载 2017-3-6 16:29
无处为家 I.Dont.Feel.at.Home.1080p.WEBRip-DEFLATE 5.43GB 字幕、种子均不提供下载 不提供下载 2017-3-6 052 不提供下载 2017-3-6 16:29
摄影师.The.Photographer.HD1080p.btrenren.mp4 1.75GB 字幕、种子均不提供下载 不提供下载 2017-3-6 0102 不提供下载 2017-3-6 16:29
我老公的家庭教师.My.Husband.s.Tutor.HDRip.720p-STY [无字/2.5GB] 字幕、种子均不提 ... 不提供下载 2017-1-18 61263 easymancat 2017-3-6 14:45
旷野孤雏2 Against.the.Wild.2.1080p.BluRay-MELiTE 6.56GB 字幕、种子均不提供下载 不提供下载 2017-3-6 062 不提供下载 2017-3-6 14:33
生活48小时 Wild.for.the.Night.720p.BluRay-GUACAMOLE 4.36GB 字幕、种子均不提供下 ... 不提供下载 2017-3-6 027 不提供下载 2017-3-6 14:33
生活48小时 Wild.for.the.Night.1080p.BluRay-GUACAMOLE 7.6GB 字幕、种子均不提供下 ... 不提供下载 2017-3-6 038 不提供下载 2017-3-6 14:33
美国暴力 American.Violence.720p.WEB-DL-iFT 3.42GB 字幕、种子均不提供下载 不提供下载 2017-2-6 1282 dsyy333 2017-3-5 23:51
[间谍同盟]Allied.BluRay.720p-CNXP[中英字幕/2.9G] 字幕、种子均不提供下载 不提供下载 2017-3-3 195 jadeite 2017-3-5 20:30
路易·德拉克斯的第九条命/路易的第九条命 2016.720p.BluRay-DRONES 5.47GB 字幕、种 ... 不提供下载 2017-1-26 296 huyllist 2017-3-5 19:12
太空旅客 Passengers.1080p.3D.BluRay.Half-OU- 22GB 字幕、种子均不提供下载 不提供下载 2017-3-4 1126 qiuzhi102 2017-3-5 15:33
岩浆毒蛛2 2.Lava.2.Lantula.720p.BluRay-JustWatch 3.2GB 字幕、种子均不提供下载 不提供下载 2017-3-5 0339 不提供下载 2017-3-5 14:54
一种谋杀 A.Kind.Of.Murder.LIMITED.720p.BluRay-DRONES 4.38GB 字幕、种子均不提供下 ... 不提供下载 2017-3-5 053 不提供下载 2017-3-5 14:54
藩篱/篱笆内的风暴(台) Fences.BluRay.1080p 12.59G 字幕、种子均不提供下载 不提供下载 2017-3-5 039 不提供下载 2017-3-5 14:54
奥德赛 The.Odyssey.1080p.BlurayHD -DDR 12.13GB 字幕、种子均不提供下载 不提供下载 2017-3-5 040 不提供下载 2017-3-5 14:54
胜负未决的战斗 In.Dubious.Battle.1080p.BluRay-ROVERS 7.96GB 字幕、种子均不提供下 ... 不提供下载 2017-3-5 072 不提供下载 2017-3-5 14:54
她/烈女本色/她的危险游 Elle.LIMITED.1080p.BluRay-DEPTH 11GB 字幕、种子均不提供下 ... 不提供下载 2017-3-5 065 不提供下载 2017-3-5 14:54
永远闪耀 Always.Shine.Limited.1080p.BluRay-DRONES 6.57GB 字幕、种子均不提供下载 不提供下载 2017-3-5 084 不提供下载 2017-3-5 14:54
永远闪耀 Always.Shine.Limited.720p.BluRay-DRONES 4.38GB 字幕、种子均不提供下载 不提供下载 2017-3-5 064 不提供下载 2017-3-5 14:54
第一夫人/第一夫人的秘密 Jackie.1080p.BluRay 15GB 字幕、种子均不提供下载 不提供下载 2017-3-5 0117 不提供下载 2017-3-5 14:54
我是布莱克 I.Daniel.Blake.1080p.BluRay 9GB 字幕、种子均不提供下载 不提供下载 2017-3-5 068 不提供下载 2017-3-5 14:54
百条大道 100.Streets.1080p.BluRay-HR 13.21GB 字幕、种子均不提供下载 不提供下载 2017-3-5 041 不提供下载 2017-3-5 14:54
夜行动物 Nocturnal.Animals.720p.BluRay 6.1GB 字幕、种子均不提供下载 不提供下载 2017-3-5 030 不提供下载 2017-3-5 14:54
泰山归来:险战丛林[国英双语] The.Legend.of.Tarzan.BluRay.720p.2Audio-NowYS 3. 字 ... 不提供下载 2017-2-21 172 aaa75309 2017-3-5 12:19
海洋奇缘 Moana.1080p.3D.BluRay.Half-OU- 17.8GB 字幕、种子均不提供下载 不提供下载 2017-2-22 189 gxs1992 2017-3-4 17:58
淫乱书生 Obscebe.Scholar.720p.WEB-DL.ACC-QUiCKY 1.82GB 字幕、种子均不提供下载  ...2 不提供下载 2016-12-31 151870 972644913 2017-3-4 17:28
血战钢锯岭 2016.1080p.BluRay.REMUX- 34GB 字幕、种子均不提供下载 不提供下载 2017-2-12 6136 hyb9425 2017-3-4 15:56
僵持/对峙/失控对决 Standoff.1080p.BluRay-VALUE 6.55GB 字幕、种子均不提供下载 不提供下载 2017-3-4 037 不提供下载 2017-3-4 11:32
太空旅客 Passengers.1080p.3D.BluRay.Half-SBS- 22GB 字幕、种子均不提供下载 不提供下载 2017-3-4 097 不提供下载 2017-3-4 11:32
别杀它 Dont.Kill.It.1080p.WEB-DL 2.86GB 字幕、种子均不提供下载 不提供下载 2017-3-4 0162 不提供下载 2017-3-4 11:32
[一路顺风]Godspeed.BluRay.720p-CnSCG[简繁中字/3G] 字幕、种子均不提供下载 不提供下载 2017-3-4 050 不提供下载 2017-3-4 11:32
三十一 31.A.Rob.Zombie.Film.3D.LIMITED.1080p.BluRay-VALUE 6.5GB 字幕、种子均不提 ... 不提供下载 2017-3-4 049 不提供下载 2017-3-4 11:32
岩浆毒蛛2 2.Lava.2.Lantula.1080p.BluRay-JustWatch 6.55GB 字幕、种子均不提供下载 不提供下载 2017-3-4 0623 不提供下载 2017-3-4 11:32
女斗 Catfight.1080p.WEB-DL2.0 3.52GB 字幕、种子均不提供下载 不提供下载 2017-3-4 078 不提供下载 2017-3-4 11:32
下一页 »

快速发帖

还可输入 80 个字符
您需要登录后才可以发帖 登录 | 立即注册

本版积分规则

Archiver|手机版|小黑屋|量子谷/量子界论坛 - 分享是一种快乐!   | 联系我们

GMT+8, 2017-3-25 00:05 , Processed in 0.094253 second(s), 16 queries .

Powered by Discuz! X3.1

© 2001-2013 Comsenz Inc.

返回顶部 返回版块